{"data":{"norad_id":69492,"intl_designator":"2026-131Q","name":"STARLINK-37568","alt_names":[],"object_type":"PAYLOAD","status":"ACTIVE","operator":null,"country":"US","launch_date":"2026-06-11","launch_site_code":"AFWTR","launch_vehicle":null,"mission":null,"orbit_class":"UNKNOWN","rcs_meters":null,"size_class":null,"mass_kg":null,"dimensions":null,"purposes":["comms"],"wikipedia_slug":null,"has_3d_model":false,"image_url":null,"decayed_at":null,"tle_current":{"epoch":"2026-09-18T19:59:19.319136Z","epoch_age_seconds":169537,"freshness":"FRESH","line1":"1 69492U 26131Q   26261.83286249  .00011293  00000+0  35161-3 0  9996","line2":"2 69492  97.2848 282.7466 0000781  87.2802 272.8530 15.33443781 16641","mean_motion":15.33443781,"eccentricity":7.81e-5,"inclination_deg":97.2848,"raan_deg":282.7466,"arg_perigee_deg":87.2802,"mean_anomaly_deg":272.853,"bstar":0.00035161,"rev_number":1664,"period_min":93.90627930689,"perigee_km":465.01230966201,"apogee_km":466.08129307178,"semimajor_km":6843.6838013669,"source":"CELESTRAK","updated_at":"2026-09-20T09:00:44.208097Z"}}}